EUTELSAT HOTBIRD 13F

Last updated on Mon Nov 03 2025 00:03:00 GMT+0000 (Coordinated Universal Time)

1 54048U 22134A 25306.32753390 .00000099 00000+0 00000+0 0 9997 2 54048 0.0571 283.3547 0001880 78.1530 171.2787 1.00269886 11105
UTC large
Height (km)
Speed (km/s)
/
Latitude / Longitude
Inclination (degrees)
Orbital Period (minutes)
Azimuth
Elevation
Range (km)
Doppler Factor

Next 0 passes for location: London (51.5072 / 0.1276)

Sorry there are no passes over London.